Brasher Falls, New York
Current Conditions -  °F | °C
As of 11:51 PM on Saturday 22 Nov 2014 (Local Time) from KMSS Reporting Station
Light Rain Light Rain  
Wind Chill: 32°   Ceiling: 400
Heat Index: 39°   Visibility: 3mi
Dew Point: 39°   Wind: 13mph
Humidity: 100%   Direction: 220°SW
Pressure: 29.93"   Gusts: NA
Location:  44.81°N, 74.77°W
Report Text: KMSS 230451Z AUTO 22011KT 3SM -RA BR OVC004 04/04 A2993 RMK AO2 RAB36 P0000
Loading
Personal Weather Stations






























Interactive Weather Map New forecast layout! Learn more

10-Day Weather Forecast

Advertisements
Track Severe Weather on mobile